Trenton, NJ

12:42 AM EDT on September 24, 2017 (GMT -0400)
Trenton Mercer

Weather History for KTTN - March, 2013

Change the Weather History Date:

Wednesday, March 13, 2013

  Actual Average Record
Temperature  
Mean Temperature 42 °F 40 °F  
Max Temperature 49 °F 50 °F 81 °F (1990)
Min Temperature 34 °F 31 °F 6 °F (1888)
Degree Days  
Heating Degree Days 23 25  
Month to date heating degree days 321 342  
Since 1 July heating degree days 3922 4156  
Cooling Degree Days 0 0  
Month to date cooling degree days 0 0  
Year to date cooling degree days 0 0  
Moisture  
Dew Point 27 °F    
Average Humidity 57    
Maximum Humidity 76    
Minimum Humidity 38    
Precipitation  
Precipitation T in 0.12 in 2.40 in (1993)
Month to date precipitation 1.07 1.61  
Year to date precipitation 5.69 7.08  
Sea Level Pressure  
Sea Level Pressure 29.87 in    
Wind  
Wind Speed 9 mph (NW)    
Max Wind Speed 23 mph    
Max Gust Speed 33 mph    
Visibility 10 miles    
Events      
T = Trace of Precipitation, MM = Missing Value Source: NWS Daily Summary

Daily Weather History Graph

Daily Weather History Graph

Search for Another Location

Airport or City:

Trip Planner

Search our weather history database for the weather conditions in past years. The results will help you decide how hot, cold, wet, or windy it might be!

Date:

Astronomy

Mar. 13, 2013 Rise Set
Actual Time 7:13 AM EDT 7:04 PM EDT
Civil Twilight 6:46 AM EDT 7:31 PM EDT
Nautical Twilight 6:15 AM EDT 8:02 PM EDT
Astronomical Twilight 5:43 AM EDT 8:34 PM EDT
Moon 7:51 AM EDT (3/13) 9:18 PM EDT (3/13)
Length of Visible Light 12h 44m
Length of Day
11h 50m
Waxing Crescent, 4% of the Moon is Illuminated
Mar 13
Waxing Crescent
Mar 19
First Quarter
Mar 27
Full
Apr 3
Last Quarter
Apr 10
New

Hourly Weather History & Observations

Time (EDT) Temp. Windchill Dew Point Humidity Pressure Visibility Wind Dir Wind Speed Gust Speed Precip Events Conditions
12:53 AM 43.0 °F 37.2 °F 33.1 °F 68% 29.85 in 10.0 mi NNW 10.4 mph 19.6 mph N/A   Mostly Cloudy
1:53 AM 41.0 °F 34.7 °F 30.9 °F 67% 29.86 in 10.0 mi NNW 10.4 mph 19.6 mph N/A   Clear
3:53 AM 39.9 °F 36.7 °F 28.9 °F 65% 29.86 in 10.0 mi NNW 4.6 mph - N/A   Clear
4:53 AM 39.0 °F 35.7 °F 28.0 °F 65% 29.87 in 10.0 mi NW 4.6 mph - N/A   Clear
5:53 AM 37.9 °F 34.4 °F 27.0 °F 65% 29.89 in 10.0 mi WNW 4.6 mph - N/A   Clear
6:53 AM 37.0 °F 33.3 °F 27.0 °F 67% 29.89 in 10.0 mi WNW 4.6 mph - N/A   Clear
7:53 AM 37.0 °F 32.4 °F 27.0 °F 67% 29.90 in 10.0 mi WNW 5.8 mph - N/A   Clear
8:53 AM 39.9 °F 35.1 °F 28.0 °F 63% 29.90 in 10.0 mi WNW 6.9 mph - N/A   Clear
9:53 AM 43.0 °F 37.2 °F 27.0 °F 53% 29.90 in 10.0 mi NNW 10.4 mph - N/A   Clear
10:53 AM 44.1 °F 39.0 °F 25.0 °F 47% 29.88 in 10.0 mi NNW 9.2 mph - N/A   Clear
11:53 AM 46.0 °F 41.0 °F 23.0 °F 40% 29.88 in 10.0 mi NW 10.4 mph - N/A   Clear
12:53 PM 46.9 °F - 26.1 °F 44% 29.86 in 10.0 mi NNW 8.1 mph - N/A   Clear
1:53 PM 48.9 °F - 24.1 °F 38% 29.84 in 10.0 mi West 12.7 mph 18.4 mph N/A   Mostly Cloudy
2:53 PM 48.0 °F - 24.1 °F 39% 29.82 in 10.0 mi WNW 11.5 mph 19.6 mph N/A   Overcast
3:53 PM 46.9 °F - 24.1 °F 41% 29.81 in 10.0 mi WNW 11.5 mph 20.7 mph N/A   Partly Cloudy
4:53 PM 46.0 °F 39.9 °F 25.0 °F 44% 29.82 in 10.0 mi WNW 13.8 mph 19.6 mph N/A   Mostly Cloudy
5:53 PM 39.9 °F 35.1 °F 32.0 °F 73% 29.85 in 10.0 mi NNW 6.9 mph - 0.00 in   Mostly Cloudy
6:53 PM 41.0 °F 37.1 °F 30.9 °F 67% 29.86 in 10.0 mi West 5.8 mph - N/A   Clear
7:53 PM 39.9 °F 37.8 °F 30.9 °F 70% 29.86 in 10.0 mi West 3.5 mph - N/A   Scattered Clouds
8:53 PM 39.9 °F 35.1 °F 28.0 °F 63% 29.89 in 10.0 mi WNW 6.9 mph - N/A   Mostly Cloudy
9:53 PM 39.0 °F 31.8 °F 24.1 °F 55% 29.90 in 10.0 mi NW 11.5 mph - N/A   Clear
10:53 PM 37.0 °F 29.8 °F 24.1 °F 59% 29.91 in 10.0 mi NW 10.4 mph 16.1 mph N/A   Clear
11:53 PM 36.0 °F 28.0 °F 21.0 °F 55% 29.91 in 10.0 mi WNW 11.5 mph 19.6 mph N/A   Clear